Time,TemperatureF,DewpointF,PressureIn,WindDirection,WindDirectionDegrees,WindSpeedMPH,WindSpeedGustMPH,Humidity,HourlyPrecipIn,Conditions,Clouds,dailyrainin,SoftwareType,DateUTC
2013-11-05 00:01:00,61.2,57.2,30.23,South,180,6.9,9.8,87,0.00,,,0.00,meteobridge,2013-11-05 06:01:00,
2013-11-05 00:08:00,60.8,57.2,30.23,SW,225,6.9,13.6,88,0.00,,,0.00,meteobridge,2013-11-05 06:08:00,
2013-11-05 00:14:00,60.8,57.2,30.23,SW,225,7.6,9.8,88,0.00,,,0.00,meteobridge,2013-11-05 06:14:00,
2013-11-05 00:20:00,60.6,57.4,30.22,North,0,9.8,9.8,89,0.00,,,0.00,meteobridge,2013-11-05 06:20:00,
2013-11-05 00:27:00,60.8,56.8,30.22,SE,135,6.0,8.3,87,0.00,,,0.00,meteobridge,2013-11-05 06:27:00,
2013-11-05 00:33:00,60.6,57.0,30.22,South,180,5.4,5.4,88,0.00,,,0.00,meteobridge,2013-11-05 06:33:00,
2013-11-05 00:39:00,60.6,57.0,30.22,West,270,1.6,3.8,88,0.00,,,0.00,meteobridge,2013-11-05 06:39:00,
2013-11-05 00:46:00,60.6,57.0,30.22,SW,225,0.7,0.7,88,0.00,,,0.00,meteobridge,2013-11-05 06:46:00,
2013-11-05 00:52:00,60.6,57.0,30.22,South,180,4.5,8.3,88,0.00,,,0.00,meteobridge,2013-11-05 06:52:00,
2013-11-05 00:59:00,60.4,56.8,30.22,SW,225,5.4,6.0,88,0.00,,,0.00,meteobridge,2013-11-05 06:59:00,
2013-11-05 01:05:00,60.3,56.7,30.22,SW,225,5.4,9.2,88,0.00,,,0.00,meteobridge,2013-11-05 07:05:00,
2013-11-05 01:11:00,60.4,56.5,30.22,SW,225,6.0,8.3,87,0.00,,,0.00,meteobridge,2013-11-05 07:11:00,
2013-11-05 01:18:00,60.4,56.5,30.21,SE,135,10.7,10.7,87,0.00,,,0.00,meteobridge,2013-11-05 07:18:00,
2013-11-05 01:24:00,60.3,56.1,30.21,SE,135,6.0,7.6,86,0.00,,,0.00,meteobridge,2013-11-05 07:24:00,
2013-11-05 01:30:00,60.4,56.3,30.20,SW,225,5.4,5.4,86,0.00,,,0.00,meteobridge,2013-11-05 07:30:00,
2013-11-05 01:37:00,60.3,56.1,30.21,South,180,2.2,6.0,86,0.00,,,0.00,meteobridge,2013-11-05 07:37:00,
2013-11-05 01:43:00,60.1,56.1,30.20,South,180,3.1,3.1,87,0.00,,,0.00,meteobridge,2013-11-05 07:43:00,
2013-11-05 01:49:00,60.1,56.1,30.20,South,180,7.6,7.6,87,0.00,,,0.00,meteobridge,2013-11-05 07:49:00,
2013-11-05 01:58:00,60.1,56.1,30.19,SE,135,6.0,6.0,87,0.00,,,0.00,meteobridge,2013-11-05 07:58:00,
2013-11-05 02:04:00,60.1,56.1,30.19,South,180,5.4,5.4,87,0.00,,,0.00,meteobridge,2013-11-05 08:04:00,
2013-11-05 02:10:00,60.3,56.3,30.19,South,180,3.8,4.5,87,0.00,,,0.00,meteobridge,2013-11-05 08:10:00,
2013-11-05 02:17:00,60.3,56.1,30.18,South,180,4.5,6.0,86,0.00,,,0.00,meteobridge,2013-11-05 08:17:00,
2013-11-05 02:23:00,60.3,56.1,30.19,South,180,2.2,2.2,86,0.00,,,0.00,meteobridge,2013-11-05 08:23:00,
2013-11-05 02:29:00,59.9,55.8,30.18,SW,225,0.7,3.8,86,0.00,,,0.00,meteobridge,2013-11-05 08:29:00,
2013-11-05 02:38:00,59.5,55.6,30.18,SW,225,3.8,5.4,87,0.00,,,0.00,meteobridge,2013-11-05 08:38:00,
2013-11-05 02:44:00,60.1,55.6,30.18,SE,135,7.6,7.6,85,0.00,,,0.00,meteobridge,2013-11-05 08:44:00,
2013-11-05 02:51:00,60.3,55.4,30.17,SW,225,9.2,9.2,84,0.00,,,0.00,meteobridge,2013-11-05 08:51:00,
2013-11-05 02:57:00,60.1,55.2,30.18,NE,45,7.6,7.6,84,0.00,,,0.00,meteobridge,2013-11-05 08:57:00,
2013-11-05 03:03:00,60.3,55.4,30.17,SE,135,6.0,10.7,84,0.00,,,0.00,meteobridge,2013-11-05 09:03:00,
2013-11-05 03:10:00,59.9,55.0,30.18,SE,135,2.2,3.1,84,0.00,,,0.00,meteobridge,2013-11-05 09:10:00,
2013-11-05 03:16:00,59.7,54.9,30.18,South,180,3.8,3.8,84,0.00,,,0.00,meteobridge,2013-11-05 09:16:00,
2013-11-05 03:22:00,60.3,55.0,30.18,South,180,2.2,5.4,83,0.00,,,0.00,meteobridge,2013-11-05 09:22:00,
2013-11-05 03:29:00,59.5,54.3,30.18,South,180,6.0,6.0,83,0.00,,,0.00,meteobridge,2013-11-05 09:29:00,
2013-11-05 03:35:00,59.5,54.3,30.18,SW,225,0.0,4.5,83,0.00,,,0.00,meteobridge,2013-11-05 09:35:00,
2013-11-05 03:41:00,58.6,54.1,30.18,SE,135,5.4,5.4,85,0.00,,,0.00,meteobridge,2013-11-05 09:41:00,
2013-11-05 03:48:00,58.5,54.3,30.18,SW,225,5.4,6.0,86,0.00,,,0.00,meteobridge,2013-11-05 09:48:00,
2013-11-05 03:54:00,58.3,54.1,30.18,SE,135,4.5,5.4,86,0.00,,,0.00,meteobridge,2013-11-05 09:54:00,
2013-11-05 04:00:00,58.3,54.1,30.19,SE,135,4.5,4.5,86,0.00,,,0.00,meteobridge,2013-11-05 10:00:00,
2013-11-05 04:07:00,58.3,54.1,30.19,SE,135,4.5,4.5,86,0.00,,,0.00,meteobridge,2013-11-05 10:07:00,
2013-11-05 04:13:00,57.9,53.8,30.19,South,180,0.0,3.1,86,0.00,,,0.00,meteobridge,2013-11-05 10:13:00,
2013-11-05 04:19:00,57.7,54.0,30.19,South,180,2.2,2.2,87,0.00,,,0.00,meteobridge,2013-11-05 10:19:00,
2013-11-05 04:26:00,57.4,53.6,30.19,SE,135,1.6,3.1,87,0.00,,,0.00,meteobridge,2013-11-05 10:26:00,
2013-11-05 04:32:00,57.6,53.8,30.19,West,270,0.0,0.0,87,0.00,,,0.00,meteobridge,2013-11-05 10:32:00,
2013-11-05 04:38:00,57.7,54.0,30.19,South,180,1.6,3.8,87,0.00,,,0.00,meteobridge,2013-11-05 10:38:00,
2013-11-05 04:45:00,57.4,53.8,30.19,SE,135,3.8,3.8,88,0.00,,,0.00,meteobridge,2013-11-05 10:45:00,
2013-11-05 04:51:00,57.2,53.4,30.19,SE,135,5.4,5.4,87,0.00,,,0.00,meteobridge,2013-11-05 10:51:00,
2013-11-05 04:57:00,57.2,53.1,30.20,SE,135,3.8,6.0,86,0.00,,,0.00,meteobridge,2013-11-05 10:57:00,
2013-11-05 05:04:00,57.2,53.1,30.20,SE,135,3.8,3.8,86,0.00,,,0.00,meteobridge,2013-11-05 11:04:00,
2013-11-05 05:10:00,57.2,53.1,30.20,SE,135,4.5,4.5,86,0.00,,,0.00,meteobridge,2013-11-05 11:10:00,
2013-11-05 05:17:00,57.2,53.1,30.20,SE,135,0.0,3.8,86,0.00,,,0.00,meteobridge,2013-11-05 11:17:00,
2013-11-05 05:23:00,56.8,53.2,30.19,South,180,0.0,0.0,88,0.00,,,0.00,meteobridge,2013-11-05 11:23:00,
2013-11-05 05:29:00,56.7,53.1,30.19,SE,135,2.2,2.2,88,0.00,,,0.00,meteobridge,2013-11-05 11:29:00,
2013-11-05 05:36:00,57.0,53.4,30.19,SE,135,3.8,3.8,88,0.00,,,0.00,meteobridge,2013-11-05 11:36:00,
2013-11-05 05:42:00,57.4,53.6,30.20,SE,135,5.4,5.4,87,0.00,,,0.00,meteobridge,2013-11-05 11:42:00,
2013-11-05 05:48:00,57.6,53.4,30.20,South,180,1.6,3.1,86,0.00,,,0.00,meteobridge,2013-11-05 11:48:00,
2013-11-05 05:55:00,57.4,52.9,30.20,SE,135,3.1,3.8,85,0.00,,,0.00,meteobridge,2013-11-05 11:55:00,
2013-11-05 06:01:00,57.9,53.4,30.21,SE,135,6.0,6.0,85,0.00,,,0.00,meteobridge,2013-11-05 12:01:00,
2013-11-05 06:07:00,59.2,54.0,30.21,SE,135,6.0,6.0,83,0.00,,,0.00,meteobridge,2013-11-05 12:07:00,
2013-11-05 06:14:00,63.5,56.8,30.21,South,180,3.1,3.1,79,0.00,,,0.00,meteobridge,2013-11-05 12:14:00,
2013-11-05 06:20:00,61.7,54.9,30.22,SE,135,2.2,3.1,78,0.00,,,0.00,meteobridge,2013-11-05 12:20:00,
2013-11-05 06:26:00,63.9,55.4,30.22,South,180,0.0,2.2,74,0.00,,,0.00,meteobridge,2013-11-05 12:26:00,
2013-11-05 06:33:00,65.5,55.8,30.22,South,180,0.0,0.0,71,0.00,,,0.00,meteobridge,2013-11-05 12:33:00,
2013-11-05 06:39:00,65.3,54.9,30.22,East,90,2.2,2.2,69,0.00,,,0.00,meteobridge,2013-11-05 12:39:00,
2013-11-05 06:45:00,64.9,55.4,30.22,East,90,3.8,3.8,71,0.00,,,0.00,meteobridge,2013-11-05 12:45:00,
2013-11-05 06:52:00,65.1,55.0,30.22,SE,135,3.1,3.8,70,0.00,,,0.00,meteobridge,2013-11-05 12:52:00,
2013-11-05 06:58:00,64.9,54.9,30.22,East,90,3.1,4.5,70,0.00,,,0.00,meteobridge,2013-11-05 12:58:00,
2013-11-05 07:04:00,67.1,56.1,30.22,South,180,5.4,5.4,68,0.00,,,0.00,meteobridge,2013-11-05 13:04:00,
2013-11-05 07:11:00,68.2,56.3,30.23,South,180,0.0,3.1,66,0.00,,,0.00,meteobridge,2013-11-05 13:11:00,
2013-11-05 07:17:00,71.1,57.4,30.23,West,270,0.0,0.0,62,0.00,,,0.00,meteobridge,2013-11-05 13:17:00,
2013-11-05 07:23:00,70.9,54.9,30.23,East,90,2.2,2.2,57,0.00,,,0.00,meteobridge,2013-11-05 13:23:00,
2013-11-05 07:30:00,69.8,54.3,30.23,SE,135,0.0,1.6,58,0.00,,,0.00,meteobridge,2013-11-05 13:30:00,
2013-11-05 07:36:00,69.8,54.9,30.23,East,90,0.7,2.2,59,0.00,,,0.00,meteobridge,2013-11-05 13:36:00,
2013-11-05 07:42:00,69.8,54.9,30.24,North,0,1.6,1.6,59,0.00,,,0.00,meteobridge,2013-11-05 13:42:00,
2013-11-05 07:49:00,68.9,54.5,30.24,NW,315,3.8,3.8,60,0.00,,,0.00,meteobridge,2013-11-05 13:49:00,
2013-11-05 07:55:00,69.1,55.0,30.24,North,0,4.5,4.5,61,0.00,,,0.00,meteobridge,2013-11-05 13:55:00,
2013-11-05 08:01:00,70.3,55.8,30.25,North,0,1.6,2.2,60,0.00,,,0.00,meteobridge,2013-11-05 14:01:00,
2013-11-05 08:08:00,72.3,56.3,30.25,West,270,2.2,2.2,57,0.00,,,0.00,meteobridge,2013-11-05 14:08:00,
2013-11-05 08:14:00,70.5,54.1,30.25,North,0,2.2,3.1,56,0.00,,,0.00,meteobridge,2013-11-05 14:14:00,
2013-11-05 08:20:00,70.7,54.7,30.25,North,0,0.0,4.5,57,0.00,,,0.00,meteobridge,2013-11-05 14:20:00,
2013-11-05 08:27:00,72.3,57.2,30.25,North,0,5.4,5.4,59,0.00,,,0.00,meteobridge,2013-11-05 14:27:00,
2013-11-05 08:33:00,70.9,57.2,30.25,West,270,3.1,5.4,62,0.00,,,0.00,meteobridge,2013-11-05 14:33:00,
2013-11-05 08:40:00,70.0,56.3,30.25,West,270,3.8,5.4,62,0.00,,,0.00,meteobridge,2013-11-05 14:40:00,
2013-11-05 08:46:00,74.5,58.8,30.25,NE,45,2.2,2.2,58,0.00,,,0.00,meteobridge,2013-11-05 14:46:00,
2013-11-05 08:52:00,72.0,54.9,30.25,SW,225,2.2,4.5,55,0.00,,,0.00,meteobridge,2013-11-05 14:52:00,
2013-11-05 08:59:00,74.3,57.0,30.25,SW,225,4.5,5.4,55,0.00,,,0.00,meteobridge,2013-11-05 14:59:00,
2013-11-05 09:05:00,72.7,55.6,30.24,South,180,3.1,3.1,55,0.00,,,0.00,meteobridge,2013-11-05 15:05:00,
2013-11-05 09:11:00,74.3,57.6,30.24,North,0,3.1,3.8,56,0.00,,,0.00,meteobridge,2013-11-05 15:11:00,
2013-11-05 09:18:00,74.1,55.9,30.25,North,0,3.8,6.9,53,0.00,,,0.00,meteobridge,2013-11-05 15:18:00,
2013-11-05 09:24:00,74.1,55.4,30.25,NW,315,5.4,6.9,52,0.00,,,0.00,meteobridge,2013-11-05 15:24:00,
2013-11-05 09:30:00,74.3,55.0,30.24,SE,135,1.6,6.9,51,0.00,,,0.00,meteobridge,2013-11-05 15:30:00,
2013-11-05 09:37:00,73.4,53.6,30.25,SE,135,3.1,7.6,50,0.00,,,0.00,meteobridge,2013-11-05 15:37:00,
2013-11-05 09:43:00,76.8,56.3,30.24,West,270,6.9,6.9,49,0.00,,,0.00,meteobridge,2013-11-05 15:43:00,
2013-11-05 09:49:00,75.4,54.9,30.24,West,270,4.5,7.6,49,0.00,,,0.00,meteobridge,2013-11-05 15:49:00,
2013-11-05 09:56:00,74.8,53.8,30.24,West,270,6.9,8.3,48,0.00,,,0.00,meteobridge,2013-11-05 15:56:00,
2013-11-05 10:02:00,76.8,55.6,30.24,South,180,5.4,6.0,48,0.00,,,0.00,meteobridge,2013-11-05 16:02:00,
2013-11-05 10:08:00,78.1,56.3,30.24,South,180,4.5,6.9,47,0.00,,,0.00,meteobridge,2013-11-05 16:08:00,
2013-11-05 10:15:00,76.1,55.0,30.24,West,270,5.4,8.3,48,0.00,,,0.00,meteobridge,2013-11-05 16:15:00,
2013-11-05 10:21:00,75.7,54.1,30.23,South,180,6.9,9.2,47,0.00,,,0.00,meteobridge,2013-11-05 16:21:00,
2013-11-05 10:27:00,77.2,55.9,30.23,NW,315,7.6,7.6,48,0.00,,,0.00,meteobridge,2013-11-05 16:27:00,
2013-11-05 10:34:00,77.5,56.3,30.23,West,270,9.8,9.8,48,0.00,,,0.00,meteobridge,2013-11-05 16:34:00,
2013-11-05 10:40:00,77.5,56.8,30.22,SW,225,5.4,5.4,49,0.00,,,0.00,meteobridge,2013-11-05 16:40:00,
2013-11-05 10:46:00,77.5,56.3,30.22,West,270,11.4,11.4,48,0.00,,,0.00,meteobridge,2013-11-05 16:46:00,
2013-11-05 10:53:00,77.4,56.1,30.22,West,270,6.9,7.6,48,0.00,,,0.00,meteobridge,2013-11-05 16:53:00,
2013-11-05 10:59:00,75.0,55.0,30.22,West,270,8.3,8.3,50,0.00,,,0.00,meteobridge,2013-11-05 16:59:00,
2013-11-05 11:05:00,74.5,55.8,30.22,SW,225,7.6,10.7,52,0.00,,,0.00,meteobridge,2013-11-05 17:05:00,
2013-11-05 11:12:00,74.8,56.5,30.21,North,0,3.8,8.3,53,0.00,,,0.00,meteobridge,2013-11-05 17:12:00,
2013-11-05 11:18:00,76.3,56.3,30.22,SW,225,2.2,5.4,50,0.00,,,0.00,meteobridge,2013-11-05 17:18:00,
2013-11-05 11:24:00,75.9,55.4,30.21,West,270,6.0,10.7,49,0.00,,,0.00,meteobridge,2013-11-05 17:24:00,
2013-11-05 11:31:00,75.9,54.9,30.20,South,180,9.2,9.2,48,0.00,,,0.00,meteobridge,2013-11-05 17:31:00,
2013-11-05 11:37:00,76.6,56.1,30.20,West,270,6.9,6.9,49,0.00,,,0.00,meteobridge,2013-11-05 17:37:00,
2013-11-05 11:43:00,75.0,57.2,30.20,NW,315,6.0,9.8,54,0.00,,,0.00,meteobridge,2013-11-05 17:43:00,
2013-11-05 11:50:00,75.9,58.1,30.20,West,270,8.3,10.7,54,0.00,,,0.00,meteobridge,2013-11-05 17:50:00,
2013-11-05 11:56:00,76.6,58.8,30.20,South,180,7.6,9.8,54,0.00,,,0.00,meteobridge,2013-11-05 17:56:00,
2013-11-05 12:03:00,77.7,58.1,30.20,West,270,9.2,9.2,51,0.00,,,0.00,meteobridge,2013-11-05 18:03:00,
2013-11-05 12:09:00,77.2,57.0,30.19,NW,315,9.8,13.0,50,0.00,,,0.00,meteobridge,2013-11-05 18:09:00,
2013-11-05 12:15:00,75.9,57.0,30.19,West,270,6.0,8.3,52,0.00,,,0.00,meteobridge,2013-11-05 18:15:00,
2013-11-05 12:22:00,78.1,59.0,30.19,West,270,9.2,9.2,52,0.00,,,0.00,meteobridge,2013-11-05 18:22:00,
2013-11-05 12:28:00,74.3,57.0,30.19,West,270,8.3,11.4,55,0.00,,,0.00,meteobridge,2013-11-05 18:28:00,
2013-11-05 12:34:00,73.8,57.0,30.19,West,270,9.2,9.2,56,0.00,,,0.00,meteobridge,2013-11-05 18:34:00,
2013-11-05 12:41:00,73.6,56.8,30.19,West,270,4.5,6.0,56,0.00,,,0.00,meteobridge,2013-11-05 18:41:00,
2013-11-05 12:47:00,73.9,58.3,30.19,SW,225,4.5,6.0,58,0.00,,,0.00,meteobridge,2013-11-05 18:47:00,
2013-11-05 12:53:00,74.3,58.1,30.18,West,270,2.2,5.4,57,0.00,,,0.00,meteobridge,2013-11-05 18:53:00,
2013-11-05 13:00:00,72.5,55.9,30.18,West,270,3.1,7.6,56,0.00,,,0.00,meteobridge,2013-11-05 19:00:00,
2013-11-05 13:06:00,72.3,55.8,30.18,SW,225,6.0,10.7,56,0.00,,,0.00,meteobridge,2013-11-05 19:06:00,
2013-11-05 13:12:00,73.0,56.5,30.18,South,180,4.5,4.5,56,0.00,,,0.00,meteobridge,2013-11-05 19:12:00,
2013-11-05 13:19:00,72.0,55.4,30.18,South,180,5.4,8.3,56,0.00,,,0.00,meteobridge,2013-11-05 19:19:00,
2013-11-05 13:25:00,71.8,54.7,30.18,West,270,1.6,5.4,55,0.00,,,0.00,meteobridge,2013-11-05 19:25:00,
2013-11-05 13:31:00,71.8,54.7,30.18,West,270,2.2,3.8,55,0.00,,,0.00,meteobridge,2013-11-05 19:31:00,
2013-11-05 13:38:00,71.6,54.5,30.18,SW,225,3.8,5.4,55,0.00,,,0.00,meteobridge,2013-11-05 19:38:00,
2013-11-05 13:44:00,72.7,56.1,30.17,North,0,0.0,0.0,56,0.00,,,0.00,meteobridge,2013-11-05 19:44:00,
2013-11-05 13:50:00,72.9,55.8,30.17,South,180,1.6,2.2,55,0.00,,,0.00,meteobridge,2013-11-05 19:50:00,
2013-11-05 13:57:00,73.0,55.9,30.17,SE,135,0.0,2.2,55,0.00,,,0.00,meteobridge,2013-11-05 19:57:00,
2013-11-05 14:03:00,74.3,55.6,30.17,SW,225,2.2,2.2,52,0.00,,,0.00,meteobridge,2013-11-05 20:03:00,
2013-11-05 14:09:00,73.6,57.4,30.16,NW,315,4.5,4.5,57,0.00,,,0.00,meteobridge,2013-11-05 20:09:00,
2013-11-05 14:16:00,72.9,59.0,30.17,North,0,4.5,9.8,62,0.00,,,0.00,meteobridge,2013-11-05 20:16:00,
2013-11-05 14:22:00,72.9,58.6,30.16,North,0,6.0,6.0,61,0.00,,,0.00,meteobridge,2013-11-05 20:22:00,
2013-11-05 14:28:00,73.2,59.4,30.16,SE,135,5.4,5.4,62,0.00,,,0.00,meteobridge,2013-11-05 20:28:00,
2013-11-05 14:35:00,71.2,58.5,30.16,East,90,9.2,9.2,64,0.00,,,0.00,meteobridge,2013-11-05 20:35:00,
2013-11-05 14:43:00,72.1,58.8,30.16,SW,225,2.2,3.1,63,0.00,,,0.00,meteobridge,2013-11-05 20:43:00,
2013-11-05 14:52:00,72.9,58.6,30.16,South,180,0.0,3.8,61,0.00,,,0.00,meteobridge,2013-11-05 20:52:00,
2013-11-05 14:58:00,72.7,58.5,30.16,North,0,3.1,3.1,61,0.00,,,0.00,meteobridge,2013-11-05 20:58:00,
2013-11-05 15:04:00,70.5,58.6,30.16,North,0,3.8,4.5,66,0.00,,,0.00,meteobridge,2013-11-05 21:04:00,
2013-11-05 15:16:00,70.0,59.0,30.16,NW,315,0.7,3.1,68,0.00,,,0.00,meteobridge,2013-11-05 21:16:00,
2013-11-05 15:23:00,70.3,59.4,30.16,South,180,0.0,1.6,68,0.00,,,0.00,meteobridge,2013-11-05 21:23:00,
2013-11-05 15:31:00,70.2,59.2,30.16,NE,45,0.0,3.1,68,0.00,,,0.00,meteobridge,2013-11-05 21:31:00,
2013-11-05 15:37:00,68.7,58.5,30.16,East,90,5.4,5.4,70,0.00,,,0.00,meteobridge,2013-11-05 21:37:00,
2013-11-05 15:44:00,69.4,59.5,30.16,North,0,1.6,1.6,71,0.00,,,0.00,meteobridge,2013-11-05 21:44:00,
2013-11-05 15:50:00,69.4,60.1,30.16,West,270,0.7,1.6,72,0.00,,,0.00,meteobridge,2013-11-05 21:50:00,
2013-11-05 15:57:00,69.3,59.5,30.16,West,270,0.0,2.2,71,0.00,,,0.00,meteobridge,2013-11-05 21:57:00,
2013-11-05 16:03:00,69.1,59.4,30.16,North,0,0.0,0.0,71,0.00,,,0.00,meteobridge,2013-11-05 22:03:00,
2013-11-05 16:09:00,68.2,59.2,30.17,West,270,3.8,3.8,73,0.00,,,0.00,meteobridge,2013-11-05 22:09:00,
2013-11-05 16:16:00,67.5,59.2,30.17,West,270,1.6,2.2,75,0.00,,,0.00,meteobridge,2013-11-05 22:16:00,
2013-11-05 16:22:00,66.0,59.0,30.17,North,0,3.1,6.9,78,0.00,,,0.00,meteobridge,2013-11-05 22:22:00,
2013-11-05 16:28:00,65.8,60.6,30.18,East,90,1.6,3.1,83,0.00,,,0.00,meteobridge,2013-11-05 22:28:00,
2013-11-05 16:35:00,66.2,60.8,30.17,SE,135,1.6,1.6,83,0.00,,,0.00,meteobridge,2013-11-05 22:35:00,
2013-11-05 16:41:00,65.8,60.8,30.17,South,180,2.2,3.1,84,0.00,,,0.00,meteobridge,2013-11-05 22:41:00,
2013-11-05 16:47:00,66.6,60.6,30.17,West,270,0.0,0.0,81,0.00,,,0.00,meteobridge,2013-11-05 22:47:00,
2013-11-05 16:54:00,65.8,59.9,30.17,SW,225,5.4,5.4,81,0.00,,,0.00,meteobridge,2013-11-05 22:54:00,
2013-11-05 17:00:00,64.9,59.7,30.17,West,270,3.8,3.8,83,0.00,,,0.00,meteobridge,2013-11-05 23:00:00,
2013-11-05 17:06:00,64.9,59.7,30.17,West,270,0.0,2.2,83,0.00,,,0.00,meteobridge,2013-11-05 23:06:00,
2013-11-05 17:13:00,64.2,58.6,30.17,West,270,1.6,4.5,82,0.00,,,0.00,meteobridge,2013-11-05 23:13:00,
2013-11-05 17:19:00,64.0,58.8,30.17,South,180,2.2,2.2,83,0.00,,,0.00,meteobridge,2013-11-05 23:19:00,
2013-11-05 17:25:00,64.0,58.8,30.17,South,180,0.0,2.2,83,0.00,,,0.00,meteobridge,2013-11-05 23:25:00,
2013-11-05 17:32:00,63.9,59.0,30.18,West,270,0.7,0.7,84,0.00,,,0.00,meteobridge,2013-11-05 23:32:00,
2013-11-05 17:38:00,63.9,59.0,30.18,West,270,0.0,0.0,84,0.00,,,0.00,meteobridge,2013-11-05 23:38:00,
2013-11-05 17:44:00,63.5,58.6,30.18,SW,225,0.0,0.0,84,0.00,,,0.00,meteobridge,2013-11-05 23:44:00,
2013-11-05 17:51:00,63.5,58.8,30.18,West,270,0.0,0.0,85,0.00,,,0.00,meteobridge,2013-11-05 23:51:00,
2013-11-05 17:57:00,63.3,58.8,30.18,South,180,0.7,0.7,85,0.00,,,0.00,meteobridge,2013-11-05 23:57:00,
2013-11-05 18:03:00,63.1,58.6,30.19,South,180,0.0,3.8,85,0.00,,,0.00,meteobridge,2013-11-06 00:03:00,
2013-11-05 18:10:00,63.5,59.2,30.19,SE,135,0.0,0.7,86,0.00,,,0.00,meteobridge,2013-11-06 00:10:00,
2013-11-05 18:16:00,63.9,59.2,30.19,West,270,0.0,0.0,85,0.00,,,0.00,meteobridge,2013-11-06 00:16:00,
2013-11-05 18:22:00,63.9,59.2,30.19,West,270,0.0,0.0,85,0.00,,,0.00,meteobridge,2013-11-06 00:22:00,
2013-11-05 18:29:00,64.0,59.4,30.19,West,270,0.0,0.0,85,0.00,,,0.00,meteobridge,2013-11-06 00:29:00,
2013-11-05 18:37:00,64.2,59.4,30.20,South,180,1.6,1.6,84,0.00,,,0.00,meteobridge,2013-11-06 00:37:00,
2013-11-05 18:44:00,64.0,59.4,30.20,SE,135,0.0,0.0,85,0.00,,,0.00,meteobridge,2013-11-06 00:44:00,
2013-11-05 18:50:00,63.7,59.0,30.20,North,0,0.0,0.0,85,0.00,,,0.00,meteobridge,2013-11-06 00:50:00,
2013-11-05 18:56:00,63.7,59.0,30.20,North,0,0.0,0.0,85,0.00,,,0.00,meteobridge,2013-11-06 00:56:00,
2013-11-05 19:03:00,63.3,58.8,30.20,East,90,0.0,0.0,85,0.00,,,0.00,meteobridge,2013-11-06 01:03:00,
2013-11-05 19:09:00,63.0,58.5,30.20,West,270,0.0,0.0,85,0.00,,,0.00,meteobridge,2013-11-06 01:09:00,
2013-11-05 19:15:00,62.8,58.5,30.21,West,270,0.0,0.0,86,0.00,,,0.00,meteobridge,2013-11-06 01:15:00,
2013-11-05 19:22:00,62.8,58.8,30.21,South,180,1.6,1.6,87,0.00,,,0.00,meteobridge,2013-11-06 01:22:00,
2013-11-05 19:28:00,62.6,58.6,30.22,SE,135,1.6,2.2,87,0.00,,,0.00,meteobridge,2013-11-06 01:28:00,
2013-11-05 19:34:00,62.6,58.6,30.22,SE,135,0.7,1.6,87,0.00,,,0.00,meteobridge,2013-11-06 01:34:00,
2013-11-05 19:41:00,62.6,58.6,30.22,South,180,3.1,3.1,87,0.00,,,0.00,meteobridge,2013-11-06 01:41:00,
2013-11-05 19:47:00,62.4,58.8,30.22,East,90,1.6,1.6,88,0.00,,,0.00,meteobridge,2013-11-06 01:47:00,
2013-11-05 19:53:00,62.2,58.3,30.22,South,180,0.0,0.0,87,0.00,,,0.00,meteobridge,2013-11-06 01:53:00,
2013-11-05 20:00:00,62.2,57.9,30.23,SW,225,0.0,2.2,86,0.00,,,0.00,meteobridge,2013-11-06 02:00:00,
2013-11-05 20:06:00,61.7,57.4,30.23,SE,135,0.0,3.1,86,0.00,,,0.00,meteobridge,2013-11-06 02:06:00,
2013-11-05 20:12:00,61.9,57.6,30.23,SE,135,1.6,2.2,86,0.00,,,0.00,meteobridge,2013-11-06 02:12:00,
2013-11-05 20:19:00,61.9,57.6,30.23,SE,135,3.8,3.8,86,0.00,,,0.00,meteobridge,2013-11-06 02:19:00,
2013-11-05 20:25:00,61.9,57.4,30.23,East,90,3.1,3.8,85,0.00,,,0.00,meteobridge,2013-11-06 02:25:00,
2013-11-05 20:31:00,62.1,57.2,30.23,SE,135,1.6,3.8,84,0.00,,,0.00,meteobridge,2013-11-06 02:31:00,
2013-11-05 20:38:00,61.9,56.7,30.23,SE,135,5.4,5.4,83,0.00,,,0.00,meteobridge,2013-11-06 02:38:00,
2013-11-05 20:44:00,61.5,56.3,30.23,SE,135,3.1,3.1,83,0.00,,,0.00,meteobridge,2013-11-06 02:44:00,
2013-11-05 20:50:00,61.7,56.5,30.24,SE,135,3.8,3.8,83,0.00,,,0.00,meteobridge,2013-11-06 02:50:00,
2013-11-05 20:57:00,61.2,55.9,30.24,SE,135,0.0,0.0,83,0.00,,,0.00,meteobridge,2013-11-06 02:57:00,
2013-11-05 21:03:00,61.3,56.1,30.24,East,90,0.0,2.2,83,0.00,,,0.00,meteobridge,2013-11-06 03:03:00,
2013-11-05 21:09:00,61.2,55.9,30.24,South,180,3.1,4.5,83,0.00,,,0.00,meteobridge,2013-11-06 03:09:00,
2013-11-05 21:16:00,61.2,56.3,30.24,SE,135,2.2,2.2,84,0.00,,,0.00,meteobridge,2013-11-06 03:16:00,
2013-11-05 21:22:00,61.5,56.7,30.24,SE,135,2.2,2.2,84,0.00,,,0.00,meteobridge,2013-11-06 03:22:00,
2013-11-05 21:29:00,61.3,56.5,30.24,SE,135,3.1,3.8,84,0.00,,,0.00,meteobridge,2013-11-06 03:29:00,
2013-11-05 21:35:00,61.3,56.1,30.24,SE,135,5.4,5.4,83,0.00,,,0.00,meteobridge,2013-11-06 03:35:00,
2013-11-05 21:41:00,61.2,55.9,30.24,NE,45,3.8,6.0,83,0.00,,,0.00,meteobridge,2013-11-06 03:41:00,
2013-11-05 21:48:00,61.0,55.8,30.24,SE,135,3.1,4.5,83,0.00,,,0.00,meteobridge,2013-11-06 03:48:00,
2013-11-05 21:56:00,61.0,55.8,30.24,South,180,3.8,3.8,83,0.00,,,0.00,meteobridge,2013-11-06 03:56:00,
2013-11-05 22:02:00,60.8,55.9,30.24,SE,135,1.6,2.2,84,0.00,,,0.00,meteobridge,2013-11-06 04:02:00,
2013-11-05 22:09:00,60.8,55.9,30.24,SE,135,2.2,2.2,84,0.00,,,0.00,meteobridge,2013-11-06 04:09:00,
2013-11-05 22:15:00,60.8,55.9,30.24,East,90,3.1,3.8,84,0.00,,,0.00,meteobridge,2013-11-06 04:15:00,
2013-11-05 22:21:00,60.4,55.9,30.24,East,90,3.1,3.8,85,0.00,,,0.00,meteobridge,2013-11-06 04:21:00,
2013-11-05 22:28:00,60.6,56.1,30.24,SE,135,3.8,3.8,85,0.00,,,0.00,meteobridge,2013-11-06 04:28:00,
2013-11-05 22:36:00,60.6,56.1,30.24,SE,135,7.6,7.6,85,0.00,,,0.00,meteobridge,2013-11-06 04:36:00,
2013-11-05 22:43:00,60.8,55.6,30.24,SE,135,6.9,8.3,83,0.00,,,0.00,meteobridge,2013-11-06 04:43:00,
2013-11-05 22:49:00,60.8,55.6,30.24,SE,135,6.0,6.9,83,0.00,,,0.00,meteobridge,2013-11-06 04:49:00,
2013-11-05 22:55:00,60.8,55.6,30.24,SE,135,4.5,6.0,83,0.00,,,0.00,meteobridge,2013-11-06 04:55:00,
2013-11-05 23:02:00,61.3,56.1,30.24,SE,135,3.1,6.9,83,0.00,,,0.00,meteobridge,2013-11-06 05:02:00,
2013-11-05 23:04:00,61.2,55.9,30.24,East,90,0.7,3.1,83,0.00,,,0.00,meteobridge,2013-11-06 05:04:00,
2013-11-05 23:08:00,61.2,55.6,30.23,SE,135,4.5,4.5,82,0.00,,,0.00,meteobridge,2013-11-06 05:08:00,
2013-11-05 23:10:00,61.0,55.4,30.23,SE,135,5.4,5.4,82,0.00,,,0.00,meteobridge,2013-11-06 05:10:00,
2013-11-05 23:16:00,60.8,55.2,30.23,SE,135,6.0,6.9,82,0.00,,,0.00,meteobridge,2013-11-06 05:16:00,
2013-11-05 23:23:00,60.4,55.6,30.22,SE,135,6.0,6.9,84,0.00,,,0.00,meteobridge,2013-11-06 05:23:00,
2013-11-05 23:29:00,60.4,55.9,30.22,SE,135,6.0,6.9,85,0.00,,,0.00,meteobridge,2013-11-06 05:29:00,
2013-11-05 23:35:00,60.6,56.1,30.22,South,180,3.8,3.8,85,0.00,,,0.00,meteobridge,2013-11-06 05:35:00,
2013-11-05 23:40:00,60.6,56.1,30.22,East,90,0.7,0.7,85,0.00,,,0.00,meteobridge,2013-11-06 05:40:00,
2013-11-05 23:46:00,60.6,56.1,30.22,South,180,0.0,0.7,85,0.00,,,0.00,meteobridge,2013-11-06 05:46:00,
2013-11-05 23:52:00,60.6,56.1,30.22,South,180,0.0,0.0,85,0.00,,,0.00,meteobridge,2013-11-06 05:52:00,
2013-11-05 23:59:00,60.4,56.3,30.22,South,180,0.0,0.0,86,0.00,,,0.00,meteobridge,2013-11-06 05:59:00,